User: anonymous   Login
Location: Unspecified
(0.0000°N, 0.0000°E)
Time: 04:13:28
(UTC+00:00)
Language:

KUIPER-00107 - Orbit

View from above orbital plane
View from above orbital plane
View from above satellite
View from above satellite

Ground track
Ground track

The orbit is defined by the following mean orbital elements,

1 65145U          26145.46963964 +.00000000 +00000-0 +28625-3 0 00005
2 65145  51.8991 168.5741 0000384  77.2587 282.8418 14.79929078    08
Epoch (UTC): 25 May 2026 11:16:16
Eccentricity: 0.0000384
inclination: 51.8991°
perigee height: 629 km
apogee height: 630 km
right ascension of ascending node: 168.5741°
argument of perigee: 77.2587°
revolutions per day: 14.79929078
mean anomaly at epoch: 282.8418°

The dashed part of the orbit path shows where the satellite is in the earth's shadow,  

DLR